Simultaneous Nadir Overpasses (SNOs) Predictions

Prediction of SNOs between GOES-16 and NPP Satellite Orbit:

Table of predicted SNOs for the next 14.0 days since TLE Epoch: 4/10/2021
Index Date Time (GOES-16) GOES-16 Lat,Lon NPP Lat,Lon Distance(km) Time Diff (sec)
1 04/10/2021 18:22:26 0.03, -75.20 0.28, -74.16 118.46 80
2 04/12/2021 06:44:12 -0.03, -75.21 0.94, -79.42 480.55 80
3 04/13/2021 06:22:48 -0.03, -75.21 -0.11, -74.89 36.61 80
4 04/15/2021 18:25:59 0.03, -75.23 -0.06, -75.66 48.86 80
5 04/16/2021 18:09:53 0.03, -75.24 0.93, -71.13 468.82 80
6 04/18/2021 06:31:41 -0.03, -75.26 0.22, -76.40 129.30 80
7 04/19/2021 06:10:15 -0.03, -75.27 -0.77, -71.86 388.37 80
8 04/20/2021 18:32:11 0.02, -75.28 -0.38, -77.16 214.07 80
9 04/21/2021 18:16:06 0.02, -75.30 0.61, -72.63 304.15 80
10 04/23/2021 06:37:53 -0.01, -75.32 0.54, -77.90 292.73 80
